AG4OX Weather Reports


Display with metric or nautical units.
time (UTC)temp
F
wind
direction
speed
MPH
gust
MPH
rain 1hr
in
rain 24hr
in
rain mn
in
humidity
%
barometer
mb
20260901135005 86 71 1.0 3.0 0.00 0.20 0.00 78 1014.9
20260901134005 86 28 2.0 3.0 0.00 0.20 0.00 77 1014.8
20260901133007 86 347 1.0 3.0 0.00 0.20 0.00 79 1014.7
20260901132006 85 333 1.0 3.0 0.00 0.20 0.00 81 1014.7
20260901131006 85 346 2.0 3.0 0.00 0.20 0.00 81 1014.7
20260901130006 83 55 1.0 3.0 0.00 0.20 0.00 82 1014.7
20260901125006 81 14 1.0 3.0 0.00 0.20 0.00 79 1014.7
20260901124006 80 5 1.0 2.0 0.00 0.20 0.00 72 1014.6
20260901122005 78 317 1.0 2.0 0.00 0.20 0.00 65 1014.5
20260901121007 78 18 0.0 2.0 0.00 0.20 0.00 65 1014.4
20260901120004 77 340 1.0 2.0 0.00 0.20 0.00 65 1014.2
20260901113005 75 318 1.0 2.0 0.00 0.20 0.00 66 1013.8
20260901112006 75 318 0.0 1.0 0.00 0.20 0.00 66 1013.8
20260901111005 75 336 0.0 0.0 0.00 0.20 0.00 66 1013.7
20260901110005 75 336 0.0 1.0 0.00 0.20 0.00 66 1013.5
20260901104005 75 200 1.0 2.0 0.00 0.20 0.00 66 1013.5
20260901102007 75 200 0.0 1.0 0.00 0.20 0.00 67 1013.2
20260901101005 75 200 0.0 1.0 0.00 0.20 0.00 66 1013.2
20260901100005 75 200 0.0 1.0 0.00 0.20 0.00 67 1013.1
20260901095007 75 200 0.0 0.0 0.00 0.20 0.00 67 1013.3
20260901092005 76 200 0.0 1.0 0.00 0.20 0.00 67 1013.3
20260901090004 76 200 0.0 1.0 0.00 0.20 0.00 67 1013.3
20260901085007 76 200 0.0 0.0 0.00 0.20 0.00 67 1013.1
20260901084005 76 200 0.0 1.0 0.00 0.20 0.00 67 1013.4
20260901082006 76 200 0.0 1.0 0.00 0.20 0.00 68 1013.1
20260901081005 76 200 0.0 1.0 0.00 0.20 0.00 68 1013.2
20260901080004 76 200 0.0 1.0 0.00 0.20 0.00 67 1013.3
20260901075005 76 200 0.0 1.0 0.00 0.20 0.00 67 1013.3
20260901074007 77 200 1.0 2.0 0.00 0.20 0.00 67 1013.2
20260901071005 77 284 0.0 2.0 0.00 0.20 0.00 67 1013.6
20260901070004 77 288 0.0 1.0 0.00 0.20 0.00 67 1013.8
20260901064005 77 234 1.0 3.0 0.00 0.20 0.00 67 1014.0
20260901063006 77 290 0.0 2.0 0.00 0.20 0.00 67 1014.1
20260901062005 77 165 0.0 1.0 0.00 0.20 0.00 68 1014.3
20260901061006 77 165 1.0 3.0 0.00 0.20 0.00 68 1014.3
20260901060004 77 300 0.0 2.0 0.00 0.20 0.00 67 1014.1
20260901055005 77 299 1.0 2.0 0.00 0.20 0.00 67 1014.4
20260901054006 77 272 1.0 2.0 0.00 0.20 0.00 67 1014.6
20260901053006 77 277 0.0 0.0 0.00 0.20 0.00 67 1014.7
20260901052005 77 277 0.0 1.0 0.00 0.20 0.00 67 1014.9
20260901051005 77 277 0.0 1.0 0.00 0.20 0.00 67 1014.9
20260901050004 77 277 0.0 1.0 0.00 0.20 0.00 68 1015.0
20260901045005 77 277 0.0 1.0 0.00 0.20 0.00 68 1015.0
20260901044005 77 163 0.0 1.0 0.00 0.20 0.00 68 1015.0
20260901043005 77 147 0.0 0.0 0.00 0.20 0.00 69 1015.0
20260901042005 77 147 0.0 1.0 0.00 0.20 0.00 69 1015.0
20260901041011 77 148 0.0 1.0 0.00 0.20 0.00 69 1014.9
20260901040005 77 148 0.0 0.0 0.00 0.20 0.00 69 1014.8
20260901035005 78 148 0.0 1.0 0.00 0.20 0.20 69 1014.9
20260901033007 78 148 0.0 1.0 0.00 0.20 0.20 70 1014.9
20260901032005 78 148 0.0 1.0 0.00 0.20 0.20 70 1014.9
20260901030005 78 148 0.0 0.0 0.00 0.20 0.20 70 1015.0
20260901025006 78 148 0.0 0.0 0.00 0.20 0.20 71 1015.3
20260901024006 78 148 0.0 0.0 0.00 0.20 0.20 70 1015.3
20260901023005 78 148 0.0 0.0 0.00 0.20 0.20 72 1015.2
20260901022006 78 148 0.0 0.0 0.00 0.20 0.20 74 1015.0
20260901021005 78 148 0.0 0.0 0.00 0.20 0.20 74 1014.9
20260901020006 78 148 0.0 0.0 0.00 0.20 0.20 74 1014.9
20260901015005 78 148 0.0 0.0 0.00 0.20 0.20 73 1014.7
20260901014007 78 148 0.0 1.0 0.00 0.20 0.20 72 1014.6
20260901013006 78 83 0.0 0.0 0.00 0.20 0.20 75 1014.6
20260901012007 78 83 0.0 1.0 0.00 0.20 0.20 76 1014.5
20260901011006 78 83 0.0 1.0 0.00 0.20 0.20 76 1014.5
20260901010005 78 83 0.0 1.0 0.00 0.20 0.20 76 1014.4
20260901005006 79 83 0.0 1.0 0.00 0.20 0.20 76 1014.3
20260901004005 79 83 0.0 0.0 0.00 0.20 0.20 76 1014.3
20260901003005 79 83 0.0 1.0 0.00 0.20 0.20 76 1014.2
20260901002005 79 92 0.0 0.0 0.00 0.20 0.20 75 1014.2
20260901001005 79 92 1.0 2.0 0.00 0.20 0.20 74 1014.1
20260901000005 79 304 0.0 0.0 0.00 0.20 0.20 76 1014.2
20260831235005 79 304 0.0 1.0 0.00 0.20 0.20 76 1014.1
20260831234005 80 304 1.0 2.0 0.00 0.20 0.20 76 1014.0
20260831233007 80 304 1.0 2.0 0.00 0.20 0.20 77 1014.0
20260831232005 80 295 1.0 3.0 0.00 0.20 0.20 78 1014.1
20260831231005 80 290 1.0 2.0 0.00 0.20 0.20 79 1014.1
20260831230005 80 331 1.0 1.0 0.00 0.20 0.20 79 1014.0
20260831225005 80 331 0.0 2.0 0.00 0.20 0.20 80 1014.0
20260831224005 80 355 0.0 2.0 0.00 0.20 0.20 80 1013.9
20260831223006 79 5 1.0 3.0 0.00 0.20 0.20 80 1013.9
20260831221007 79 18 0.0 2.0 0.00 0.20 0.20 80 1014.1
20260831220005 78 53 0.0 2.0 0.00 0.20 0.20 80 1014.2
20260831215005 78 50 1.0 2.0 0.00 0.20 0.20 81 1014.2
20260831214005 78 355 1.0 3.0 0.00 0.20 0.20 81 1014.2
20260831213005 78 337 1.0 3.0 0.01 0.20 0.20 81 1014.2
20260831212006 78 266 1.0 3.0 0.01 0.20 0.20 79 1014.1
20260831211005 78 355 1.0 5.0 0.01 0.20 0.20 79 1014.1
20260831210005 78 340 2.0 3.0 0.01 0.20 0.20 78 1014.2
20260831205006 77 336 2.0 5.0 0.01 0.20 0.20 80 1014.5
20260831204005 77 325 3.0 10.0 0.01 0.20 0.20 81 1014.7
20260831202006 79 322 5.0 10.0 0.00 0.19 0.19 83 1014.9
20260831201005 79 281 5.0 12.0 0.00 0.19 0.19 83 1014.9
20260831195006 80 279 2.0 3.0 0.00 0.19 0.19 83 1014.9
20260831194006 80 259 1.0 3.0 0.00 0.19 0.19 83 1015.0
20260831192006 80 286 1.0 3.0 0.00 0.19 0.19 83 1015.1
20260831191006 80 268 2.0 6.0 0.00 0.19 0.19 83 1015.1
20260831190006 81 287 5.0 10.0 0.00 0.19 0.19 83 1015.2
20260831185005 82 351 1.0 2.0 0.00 0.19 0.19 82 1015.0
20260831184005 82 74 0.0 3.0 0.00 0.19 0.19 82 1014.9
20260831183006 82 74 0.0 3.0 0.00 0.19 0.19 82 1014.8
20260831181007 82 218 2.0 5.0 0.00 0.19 0.19 82 1015.0
20260831175005 83 194 0.0 2.0 0.00 0.19 0.19 82 1015.1
20260831174007 83 148 0.0 2.0 0.00 0.19 0.19 82 1015.1
20260831173006 83 219 0.0 3.0 0.00 0.19 0.19 82 1015.2
20260831172005 83 269 0.0 3.0 0.00 0.20 0.19 82 1015.1
20260831171006 83 304 1.0 6.0 0.01 0.20 0.19 82 1015.2
20260831170005 82 253 3.0 6.0 0.04 0.21 0.19 82 1015.3
20260831165006 81 243 2.0 3.0 0.05 0.23 0.19 81 1015.4
20260831164005 80 295 1.0 3.0 0.09 0.25 0.19 80 1015.3
20260831163005 78 258 0.0 5.0 0.19 0.28 0.19 76 1015.5
20260831161007 77 241 5.0 6.0 0.18 0.27 0.18 81 1015.7
20260831155005 78 236 3.0 6.0 0.14 0.23 0.14 83 1016.2
20260831154005 81 333 5.0 10.0 0.10 0.19 0.10 78 1016.1
20260831152006 88 3 2.0 3.0 0.00 0.09 0.00 73 1015.9
20260831151006 88 12 1.0 6.0 0.00 0.09 0.00 72 1015.8
20260831150006 88 77 2.0 5.0 0.00 0.09 0.00 71 1015.7
20260831145006 87 305 2.0 5.0 0.00 0.09 0.00 73 1015.9
20260831144007 88 120 2.0 3.0 0.00 0.09 0.00 74 1015.7
20260831143007 88 8 1.0 3.0 0.00 0.09 0.00 75 1015.9
20260831140004 88 123 2.0 6.0 0.00 0.09 0.00 75 1015.7